GFSNW_925_rhum_174.txt.gz
RH
90 91 81 83 84 83 82 76 74 84 75 82 91 79 65 47 49 52 55 56 57 57 49 50 48 50 45 51 54 51 42 53 90 84 79 83 67 58 57 68 48 58 50 56
92 91 80 83 84 85 69 83 87 82 74 84 83 59 57 54 50 52 51 55 56 46 49 51 49 49 42 49 51 49 46 49 68 76 67 57 68 72 55 46 49 46 38 41
84 92 83 84 87 84 88 77 80 87 88 82 57 50 53 49 50 48 47 49 43 45 44 44 50 46 44 47 48 50 50 49 41 51 41 55 66 50 54 48 56 45 39 38
79 93 88 87 89 85 97 75 64 70 83 73 59 49 44 39 42 51 44 45 48 49 52 47 48 48 51 40 50 49 47 41 46 44 41 41 41 46 43 44 38 33 34 45
84 94 92 92 91 84 98 78 65 70 55 52 53 49 46 47 42 45 44 53 48 52 52 49 48 56 55 53 55 45 46 43 42 28 33 35 38 43 38 37 39 38 41 34
74 93 91 98 91 89 81 67 65 54 57 56 55 57 49 47 46 47 47 49 54 54 48 54 51 55 60 56 60 60 50 48 57 29 50 41 27 32 38 37 38 36 32 32
73 93 95 99 90 85 78 57 66 67 54 59 53 48 50 50 48 47 51 54 54 49 52 50 51 54 57 56 58 66 49 59 70 65 46 40 32 31 33 32 35 34 32 44
76 95 94 95 91 79 86 60 71 66 55 55 46 50 50 49 50 54 54 54 53 60 49 52 50 55 43 45 52 59 60 60 61 64 52 38 33 30 35 26 28 33 41 48
77 97 94 95 92 75 74 60 65 66 58 55 42 51 52 58 62 61 59 57 59 54 62 55 40 38 42 39 42 62 59 60 51 56 28 22 30 32 30 30 36 34 42 48
84 99 96 96 93 75 76 60 67 67 53 58 50 54 57 59 61 61 67 60 60 55 65 56 54 50 45 39 42 46 59 65 47 67 41 32 32 31 33 23 30 38 42 48
91 100 99 99 92 78 71 69 66 68 62 68 62 52 58 61 62 55 59 55 58 68 53 55 62 63 56 52 41 48 44 46 50 65 43 27 36 35 26 27 36 38 41 48
99 100 100 100 94 83 73 74 70 67 65 68 74 69 65 62 58 67 72 50 64 62 67 73 77 63 70 52 33 49 44 45 46 45 36 34 38 29 32 40 38 40 44 48
87 100 97 100 99 85 74 74 71 70 82 84 83 79 72 66 60 63 61 73 66 69 70 73 70 63 64 52 55 45 41 54 55 40 33 43 43 41 38 40 38 39 43 50
86 98 98 98 100 89 77 74 71 69 80 80 77 74 72 70 69 66 66 67 71 73 77 70 68 60 58 56 53 52 46 51 51 51 42 40 35 42 40 40 41 45 49 55
100 89 87 100 100 91 81 77 76 71 72 85 88 81 79 74 69 71 68 68 74 78 73 78 70 77 73 81 77 76 60 49 47 45 37 34 34 35 40 43 44 50 56 60
95 94 100 100 99 91 81 93 86 78 71 87 94 88 85 81 76 77 78 81 86 84 76 78 84 84 75 81 74 51 59 50 43 40 37 40 36 40 42 43 47 50 63 60
99 100 100 100 98 96 92 89 85 84 71 85 99 99 84 83 83 90 89 86 92 86 87 88 88 87 86 87 82 50 57 55 53 53 50 49 49 49 56 52 56 62 60 57
78 97 100 100 100 98 96 93 96 82 82 92 100 100 94 83 93 92 95 93 90 90 89 94 91 90 91 91 73 68 67 66 60 59 61 59 61 61 58 64 66 62 64 61
70 88 98 93 93 99 99 100 96 85 85 100 100 98 99 89 98 93 94 92 93 93 93 93 91 93 96 83 80 77 78 77 75 78 77 68 64 67 63 64 66 65 66 61
85 70 70 97 100 97 99 95 98 99 99 100 99 92 99 93 96 98 96 96 97 99 93 94 90 86 79 77 74 75 85 81 82 87 74 67 70 71 67 70 68 66 67 66
88 97 99 99 100 90 96 100 100 100 100 99 98 94 98 93 96 96 93 98 98 98 94 96 94 96 79 77 79 76 85 82 87 86 83 83 76 75 76 75 69 68 69 67
93 97 97 95 99 100 99 99 100 99 97 99 99 98 87 95 92 97 99 99 99 96 93 96 88 88 74 84 81 81 85 79 79 76 76 73 71 72 76 73 68 65 64 55
78 92 99 99 99 98 97 97 98 99 99 99 100 99 100 100 100 100 99 98 97 95 97 93 91 79 82 87 84 83 78 71 72 72 70 74 71 61 61 62 57 56 53 51
92 90 96 96 96 97 97 97 98 99 99 99 99 99 99 100 99 99 97 97 94 97 97 95 93 84 87 87 83 84 84 78 74 80 74 79 69 60 56 54 53 51 53 50
95 86 97 96 95 98 98 98 98 99 100 100 100 99 99 99 99 98 97 97 96 93 95 97 92 85 89 85 84 85 86 82 77 69 72 70 63 57 57 52 49 47 48 47
88 90 94 93 97 97 93 95 94 95 94 100 99 99 98 98 97 97 96 95 90 96 96 96 89 82 84 84 84 80 79 72 66 65 62 64 58 56 54 52 48 46 44 42
86 91 90 97 97 97 95 90 79 86 81 89 92 93 96 94 96 97 96 95 92 93 91 95 82 83 85 86 77 70 71 70 62 63 62 61 58 54 56 58 48 42 40 40

GFSNW_925_rhum_177.txt.gz
RH
84 80 85 93 86 84 80 86 86 88 83 80 93 87 70 51 50 57 57 58 61 61 53 54 51 53 45 52 56 64 54 63 91 87 70 83 84 76 70 73 72 71 57 52
91 81 78 94 89 83 77 91 89 86 78 87 90 70 54 56 53 55 59 59 62 54 52 54 52 49 43 55 57 60 50 52 88 72 71 71 84 80 69 50 50 54 47 39
97 86 76 91 92 91 80 83 83 92 91 89 66 54 52 50 55 46 52 52 46 48 50 52 54 46 44 47 49 50 49 50 52 59 45 68 85 63 70 62 61 50 41 40
99 92 80 84 93 95 85 88 76 76 92 92 72 54 47 45 39 54 49 48 53 48 50 46 52 46 51 42 50 55 49 54 50 45 43 45 48 49 59 69 67 44 36 47
99 99 82 78 96 98 96 93 78 74 66 56 69 56 48 48 41 42 47 57 48 58 57 46 38 54 54 51 55 45 50 50 45 38 32 38 44 44 52 45 39 41 45 37
86 100 92 74 94 100 96 86 71 63 59 61 57 57 47 51 45 46 43 52 53 59 61 53 50 56 61 56 62 61 52 51 58 34 47 41 33 40 43 39 39 38 37 32
88 97 97 73 91 99 83 69 67 77 62 64 57 48 54 54 54 40 52 56 55 48 52 50 53 57 61 66 63 69 55 57 70 70 44 40 29 31 34 34 36 34 32 44
87 80 100 79 84 100 90 76 71 81 66 62 53 50 52 53 53 55 52 57 53 60 49 56 51 53 44 49 57 72 67 60 56 62 50 35 35 30 36 29 28 35 38 49
87 91 100 78 79 100 95 86 69 75 59 52 42 53 55 59 60 60 60 61 62 55 65 57 40 35 40 39 41 63 61 59 53 51 29 25 29 32 30 30 35 38 45 50
84 98 96 78 74 100 96 82 73 67 70 52 51 57 59 56 59 58 66 65 64 55 65 55 53 48 47 40 39 46 58 63 46 61 40 30 29 32 33 23 30 40 46 50
82 96 97 85 80 100 94 73 68 64 74 61 63 51 60 63 60 53 63 61 62 72 57 56 56 66 57 55 41 47 42 45 47 60 41 30 34 35 25 29 36 37 42 49
79 85 98 72 94 100 94 81 76 71 70 70 76 70 65 61 59 65 71 45 62 61 66 73 77 67 73 54 34 46 44 44 44 40 36 33 37 30 34 40 36 39 40 46
98 77 97 86 99 98 88 77 78 75 84 86 83 77 71 65 61 65 66 75 65 69 66 72 69 55 63 52 54 46 40 55 55 40 32 41 41 41 38 38 35 37 41 51
96 92 98 89 100 98 85 75 67 63 77 82 81 77 75 72 69 65 66 67 71 75 76 71 69 57 59 55 49 52 44 54 50 51 40 41 34 40 41 38 42 43 48 53
80 95 98 100 98 99 82 74 72 66 75 90 92 82 81 76 71 71 69 68 75 78 78 78 71 77 72 85 78 77 61 49 46 44 39 37 36 38 41 40 40 48 53 59
96 100 98 98 100 96 76 95 84 73 66 88 96 91 86 81 77 78 80 83 87 84 75 77 85 84 74 78 70 52 60 55 47 44 42 43 42 44 45 45 43 45 56 58
100 98 98 99 99 90 96 89 81 74 68 87 99 99 87 85 84 91 90 87 92 85 86 86 87 89 86 84 74 62 74 73 67 58 57 51 49 52 63 56 59 62 60 61
100 98 100 100 98 97 91 100 85 74 80 92 100 100 94 82 93 93 95 93 91 91 90 94 90 92 91 91 79 74 75 78 61 73 72 68 68 70 65 64 67 63 68 66
100 100 100 97 95 98 100 99 90 84 79 100 100 97 98 88 98 95 94 92 93 93 94 94 90 95 97 83 77 73 75 84 84 82 80 74 67 68 65 63 64 64 67 63
90 83 94 98 100 100 93 89 97 98 99 99 99 92 99 93 96 98 96 96 95 98 92 95 99 94 83 78 76 75 78 84 84 89 74 72 71 76 72 66 69 69 69 66
99 98 100 100 99 90 98 100 99 99 100 99 99 92 98 94 96 94 92 98 98 100 96 97 97 94 82 80 80 77 84 79 84 86 87 85 85 86 82 77 69 71 71 69
100 100 98 98 98 100 98 99 99 97 95 99 98 97 87 97 92 97 99 98 98 98 94 98 95 82 76 84 82 82 85 76 76 76 75 76 73 74 76 76 73 70 68 63
97 99 99 98 98 97 95 97 100 99 99 99 99 99 99 99 99 99 99 98 96 94 96 94 88 79 81 87 84 83 80 73 70 69 71 77 67 60 62 65 62 60 58 54
97 97 95 97 96 97 98 99 99 99 99 99 99 99 99 99 99 99 98 97 95 96 97 94 95 84 87 86 84 82 84 78 73 82 74 78 66 62 58 56 54 52 54 52
93 88 96 96 97 98 99 99 97 99 100 100 99 99 99 99 98 99 97 96 97 95 95 98 95 86 85 84 83 79 80 82 75 72 74 70 63 59 59 55 52 50 50 49
89 92 95 97 92 94 95 95 95 95 99 100 99 99 98 98 98 97 96 95 96 97 97 97 87 81 82 83 82 76 75 76 68 66 65 63 61 58 56 53 50 48 46 44
82 95 94 98 96 98 97 89 80 83 86 97 97 96 96 97 96 96 96 96 94 94 92 95 83 83 83 84 77 71 70 71 68 64 63 63 59 57 57 58 51 49 43 40

GFSNW_925_rhum_180.txt.gz
RH
100 99 91 83 84 89 89 83 65 92 81 66 66 70 63 50 46 52 51 50 46 48 47 45 43 43 38 40 46 55 46 48 62 64 63 65 74 73 59 59 60 69 82 64
92 100 97 88 79 88 85 70 73 91 80 67 65 60 58 50 52 48 53 54 52 49 46 45 42 42 39 46 50 49 41 44 55 60 62 65 78 70 62 46 40 48 60 32
86 96 100 96 80 86 94 67 76 84 81 74 63 57 50 50 54 45 49 45 46 48 46 42 44 42 42 44 47 51 44 45 44 44 37 58 74 68 63 59 59 48 44 30
89 91 99 100 85 82 94 69 54 60 86 80 67 54 49 48 42 52 47 45 45 42 41 40 44 42 38 43 46 53 47 52 46 38 35 36 44 55 68 70 58 45 33 36
95 87 89 100 95 90 98 73 63 60 57 55 69 64 52 48 41 44 45 50 42 45 44 32 33 40 42 40 46 40 43 49 42 50 35 35 38 36 40 48 45 50 48 47
97 88 85 92 100 99 97 81 81 56 49 50 54 53 49 42 41 43 38 42 43 50 44 40 39 39 45 48 51 49 45 45 43 38 39 39 34 28 37 35 32 29 33 26
95 91 84 84 98 99 82 76 67 58 56 48 45 43 45 44 48 38 49 48 44 42 47 47 48 49 50 51 51 51 49 45 51 57 39 42 32 28 32 32 32 28 28 31
86 86 80 89 82 100 98 80 70 63 53 44 41 45 46 46 48 51 52 52 44 46 44 43 41 43 44 45 51 53 54 46 48 54 37 28 32 26 31 28 28 26 28 32
92 91 89 81 82 88 100 93 76 67 64 45 34 41 44 44 48 53 58 60 56 48 44 42 37 27 34 34 41 54 53 50 47 39 36 29 30 29 26 28 23 29 30 35
87 93 90 91 81 85 100 93 95 75 70 46 42 42 48 42 45 46 61 66 62 53 46 41 38 34 42 35 33 47 48 45 42 35 37 25 25 29 32 25 27 33 30 34
98 99 97 99 81 91 99 93 91 87 73 48 55 46 50 54 48 46 59 57 60 58 48 40 38 44 38 44 35 38 33 34 32 41 36 37 31 33 26 25 32 32 32 36
97 100 100 96 90 85 97 94 89 89 73 69 75 67 62 58 55 50 62 47 55 51 45 51 51 50 52 37 25 40 37 33 34 32 28 32 35 31 32 33 31 33 33 37
93 100 100 98 94 94 97 96 91 92 83 78 76 68 73 66 63 62 57 64 55 56 59 53 54 44 43 36 35 38 37 43 41 38 32 35 35 36 33 32 32 34 35 34
92 100 100 97 91 99 96 96 92 77 82 84 78 79 76 74 69 63 64 63 65 63 62 60 54 46 48 41 42 40 37 46 40 38 35 33 34 34 35 36 37 38 41 40
95 100 100 96 94 93 99 99 92 72 84 89 88 78 81 76 71 68 66 66 65 64 67 70 58 58 51 62 61 51 42 36 35 32 33 31 31 35 38 37 36 39 42 47
95 98 98 92 74 97 98 99 100 88 84 92 98 88 82 84 78 76 76 75 74 70 60 64 66 75 61 61 52 45 49 48 43 37 41 40 39 41 49 44 44 42 43 45
97 95 95 99 100 99 92 97 92 82 94 92 100 100 84 83 81 82 80 81 82 72 75 74 71 77 73 69 57 56 60 59 56 54 54 49 47 46 52 53 53 60 57 55
86 96 91 96 100 98 90 94 97 88 91 94 100 100 92 81 85 89 86 84 81 83 80 84 78 82 78 77 69 61 56 58 59 61 61 59 58 59 55 58 57 56 55 55
99 90 100 98 96 99 96 99 87 81 81 99 100 98 98 81 90 88 88 82 86 86 84 83 79 83 88 73 68 61 59 67 70 67 62 60 64 62 60 59 59 56 57 55
100 92 96 100 100 100 100 86 95 94 97 97 100 87 97 84 90 94 90 88 87 96 85 88 91 83 76 70 67 64 64 70 72 87 72 69 70 69 70 64 61 59 56 55
99 100 100 100 96 94 97 100 100 100 100 100 97 86 94 86 90 89 86 95 91 98 88 89 89 84 76 70 68 68 70 68 70 75 76 77 76 78 73 68 65 66 65 63
100 100 99 96 98 100 97 100 100 98 97 100 100 92 82 90 84 90 99 96 95 96 88 95 89 77 75 72 72 71 69 66 66 71 71 74 66 68 71 71 73 72 71 65
100 99 99 99 98 95 92 96 97 98 100 100 99 99 98 98 98 100 100 99 96 86 94 88 77 76 75 74 74 72 71 66 64 63 69 74 64 62 63 61 64 62 60 58
94 96 95 94 95 95 93 93 94 98 98 98 98 99 99 100 100 98 94 94 86 95 94 88 84 79 78 74 72 68 72 65 64 75 74 75 66 60 61 60 58 56 54 56
95 89 94 95 94 95 95 95 91 97 100 99 99 99 95 99 98 97 93 96 93 87 87 92 84 80 74 73 69 66 68 68 68 69 72 70 67 60 57 58 54 52 53 52
88 94 96 95 87 92 82 89 95 97 98 100 98 97 97 96 96 95 95 92 91 92 91 85 75 77 74 72 70 67 68 66 64 64 67 66 64 60 58 54 52 51 49 48
81 96 94 95 90 88 80 78 78 86 96 95 94 92 94 95 95 94 94 92 93 92 88 79 73 73 73 71 68 68 67 65 66 69 69 68 62 60 60 60 53 48 45 40

GFSNW_925_rhum_183.txt.gz
RH
94 91 100 100 88 84 87 69 61 91 86 66 50 58 47 47 39 40 42 45 41 37 34 36 32 34 32 31 37 47 44 46 55 41 48 50 57 64 62 96 70 55 67 49
85 88 82 100 95 82 75 59 50 88 81 68 58 45 54 47 42 40 43 44 42 38 41 40 30 32 32 36 39 39 37 44 53 41 59 57 66 53 60 75 52 61 58 50
84 86 88 91 100 88 83 58 60 79 84 60 64 45 45 44 45 41 39 38 37 40 39 34 35 34 33 39 40 50 42 40 44 44 36 34 46 60 60 62 82 64 60 44
89 83 88 94 100 95 84 55 42 42 83 79 66 49 42 42 41 45 40 39 40 36 35 31 32 31 31 35 44 43 44 47 42 39 37 34 38 37 52 72 60 52 35 36
94 85 84 92 95 99 97 59 50 48 48 43 53 58 49 48 40 35 41 43 30 34 37 28 26 29 30 32 38 36 37 43 36 46 27 32 40 33 33 44 53 53 48 46
96 83 86 85 81 99 98 82 60 61 45 39 45 44 48 40 36 32 28 36 34 38 34 29 28 29 30 34 40 40 41 41 38 40 31 36 35 26 27 33 32 33 34 28
85 81 80 85 83 85 100 84 66 61 54 41 39 36 34 39 38 33 37 36 36 40 37 38 39 38 39 38 41 40 43 42 43 56 38 44 32 25 31 31 28 26 25 27
83 76 75 86 83 72 98 100 83 75 74 38 32 38 40 35 34 42 38 41 37 37 40 41 36 39 43 40 40 42 43 44 47 54 34 21 28 25 28 27 25 23 24 26
90 88 87 79 84 87 86 93 100 79 88 72 30 36 36 42 40 38 46 52 46 44 41 38 32 25 27 32 46 46 46 46 50 35 38 26 29 25 23 25 25 23 24 27
85 88 92 91 89 89 92 91 90 96 96 71 36 42 41 32 31 33 49 58 58 48 45 47 31 26 33 33 30 55 52 47 49 39 37 23 24 26 28 30 32 26 23 27
96 96 94 95 91 96 96 91 89 96 92 77 44 41 46 39 37 36 49 51 56 57 51 39 37 34 31 34 26 30 32 34 35 33 38 43 27 30 30 28 29 29 25 28
93 99 95 90 92 98 97 97 87 89 97 88 64 52 48 51 50 41 48 41 45 41 40 44 40 46 38 28 27 30 34 29 30 29 29 33 32 30 30 31 30 30 28 31
99 100 100 98 96 100 94 94 84 91 92 93 82 62 60 61 59 60 45 46 39 46 47 44 48 46 39 35 32 28 29 34 34 34 32 32 30 32 31 29 30 33 32 30
100 100 100 92 94 97 100 97 86 87 79 98 88 66 66 70 66 66 62 54 56 50 54 53 51 46 43 37 38 34 36 38 34 33 30 30 33 32 34 34 35 35 37 35
99 98 95 79 86 99 100 95 88 85 81 96 81 70 74 73 70 66 63 52 52 52 62 67 55 54 43 47 50 42 36 31 34 33 30 30 32 33 36 37 35 35 37 41
99 100 87 93 93 100 97 95 94 95 79 97 99 78 71 74 68 63 58 56 58 55 51 60 59 66 58 57 50 42 41 42 41 38 43 42 40 39 43 42 43 41 39 39
100 100 94 94 100 96 79 79 90 93 82 96 100 100 89 73 71 71 70 68 69 59 66 66 60 69 66 63 56 54 52 51 49 50 49 46 44 46 46 47 47 52 50 45
99 100 90 91 89 86 87 92 82 91 91 99 100 99 100 90 97 98 76 80 73 74 72 73 68 76 69 73 59 56 51 49 51 54 54 54 51 51 49 51 50 50 48 48
99 98 92 96 95 98 100 84 99 93 92 100 100 98 99 99 100 98 96 85 91 79 78 73 72 76 84 65 62 57 55 58 61 59 56 53 57 57 57 55 53 52 51 50
100 95 90 100 98 96 92 97 99 99 99 99 100 99 99 98 99 98 92 79 86 98 82 80 86 77 69 62 59 56 58 62 64 88 77 74 72 65 63 64 58 55 51 50
99 100 100 99 100 93 98 100 100 100 100 100 100 89 95 90 98 91 82 94 88 99 90 86 88 81 76 63 60 60 60 60 63 68 69 68 69 74 69 63 63 63 60 60
99 100 100 98 99 100 100 99 100 100 99 100 99 97 89 95 82 94 95 96 91 96 85 88 87 78 73 65 66 64 60 58 61 64 65 70 62 60 65 70 75 72 72 66
100 99 100 100 99 96 93 94 98 98 100 100 94 97 89 96 86 97 95 92 95 80 91 87 78 74 65 66 68 68 61 59 60 61 67 65 59 60 59 58 60 57 56 56
97 97 93 94 91 88 89 90 95 99 98 98 98 99 100 100 94 95 91 95 82 92 92 84 79 70 68 66 64 64 65 60 62 80 74 73 66 59 58 56 54 52 51 53
96 92 94 91 88 89 93 96 94 97 99 99 97 98 86 99 97 86 85 92 89 81 85 90 81 73 69 66 63 61 63 64 71 69 76 74 67 57 55 56 55 52 51 50
92 88 93 94 90 94 92 92 94 95 98 99 98 98 92 94 89 87 87 83 83 89 91 82 71 72 68 67 64 60 58 58 57 60 66 67 66 61 58 55 54 51 50 48
92 94 87 92 90 86 82 74 90 94 92 94 89 90 94 94 90 88 89 92 92 92 85 73 67 66 66 63 64 64 62 59 62 67 69 72 65 60 60 62 55 51 47 44

GFSNW_925_rhum_189.txt.gz
RH
80 79 79 81 88 100 89 86 83 83 84 86 92 89 63 49 45 38 44 45 50 50 44 45 44 44 35 36 46 53 52 66 83 61 52 57 63 81 75 96 90 96 98 85
84 81 82 79 86 100 91 88 78 88 86 95 94 75 64 53 52 50 50 53 51 43 46 49 43 39 40 41 42 46 46 65 85 58 62 59 70 66 68 78 94 89 96 77
86 87 87 76 89 93 98 93 84 96 94 92 92 87 76 63 55 50 48 48 42 44 51 49 51 39 39 42 45 51 45 59 57 63 42 49 52 60 66 73 97 82 91 74
88 91 88 82 76 92 98 99 85 69 96 96 88 79 79 75 71 54 45 50 52 50 53 42 47 45 36 46 55 47 54 76 66 61 54 52 53 51 52 78 77 84 64 75
85 85 85 89 79 74 89 96 93 80 69 59 91 91 88 77 71 68 57 58 48 50 58 42 42 41 38 38 49 52 59 71 59 64 47 49 53 48 46 50 63 78 75 75
80 77 81 90 86 76 90 85 93 96 85 71 62 61 56 66 63 56 52 53 51 52 51 46 44 45 43 40 48 57 56 66 69 75 58 62 48 34 35 38 39 49 60 51
78 74 84 79 83 84 80 86 89 98 97 87 81 70 64 64 55 57 51 38 40 38 40 44 44 54 53 52 51 49 58 62 69 82 67 52 36 26 30 38 38 30 35 44
78 81 84 82 82 84 96 91 91 93 96 82 85 69 72 63 56 54 47 42 40 42 42 52 56 50 51 49 51 53 54 61 76 79 77 49 34 27 31 33 34 26 41 44
82 87 92 92 92 94 97 93 95 89 92 74 69 77 84 87 70 64 52 50 49 44 55 59 58 44 43 49 58 52 57 58 70 74 64 48 32 28 25 29 45 29 39 46
90 86 78 77 78 87 91 90 90 94 90 71 69 72 92 78 74 74 61 63 59 53 71 75 73 56 32 47 63 75 73 71 80 79 74 57 29 29 31 39 41 32 38 44
82 81 84 79 71 73 89 90 88 96 95 81 68 61 64 50 55 93 61 64 67 76 79 79 69 66 47 40 44 66 69 76 73 70 69 55 31 32 33 37 36 32 36 43
86 84 83 82 81 81 84 97 87 95 98 83 77 69 62 57 66 86 78 78 76 67 70 77 72 61 58 47 44 36 49 45 49 43 45 39 33 34 35 38 40 36 40 42
78 78 77 77 78 78 78 92 91 93 96 94 91 80 65 64 67 62 81 78 63 58 61 69 66 66 60 52 51 36 33 40 39 36 38 37 38 33 34 36 37 37 36 43
75 74 75 76 76 78 83 95 91 94 93 98 78 66 71 62 58 60 77 69 63 64 71 67 74 65 54 57 50 44 42 42 41 41 37 41 41 41 39 39 38 40 40 38
76 76 78 80 81 81 86 98 98 99 96 97 92 66 63 59 66 59 63 74 70 73 84 84 84 74 58 60 63 63 45 40 46 45 39 40 45 47 45 47 47 47 44 42
79 82 84 84 83 83 95 95 89 97 99 96 96 85 79 64 65 64 59 56 66 77 84 81 82 70 61 78 70 47 44 49 49 45 50 50 53 54 50 55 56 55 50 46
79 82 84 85 83 88 96 94 80 90 99 96 98 99 98 78 76 85 78 72 74 69 81 83 78 81 78 86 73 53 56 60 58 56 57 57 54 59 53 54 57 54 52 53
79 84 83 82 87 98 98 98 99 96 96 98 99 99 99 81 96 95 78 90 90 93 86 88 70 89 88 94 70 64 61 62 64 62 59 59 58 57 58 56 57 59 60 61
83 83 67 95 100 98 93 98 99 99 95 99 99 90 94 99 98 98 98 86 94 99 98 87 78 83 88 71 72 68 60 65 69 64 60 63 66 66 62 58 57 63 63 64
83 81 98 100 99 96 96 83 99 100 100 100 98 92 98 97 97 98 98 99 98 98 98 94 99 98 77 67 68 64 67 70 68 86 79 77 74 73 69 66 65 63 64 66
82 99 99 99 98 98 98 99 99 99 99 100 97 92 98 98 97 97 98 99 99 98 98 97 98 98 88 73 73 69 70 68 71 74 76 75 76 81 76 75 72 68 64 68
90 92 98 99 100 100 99 92 98 98 93 98 97 98 96 99 98 99 100 99 99 98 97 98 98 98 84 79 78 74 68 73 75 75 79 70 70 72 79 82 84 78 68 63
97 99 98 99 98 98 97 97 98 98 99 99 98 98 98 100 99 100 99 99 98 97 98 98 99 90 84 83 77 76 71 70 76 78 69 67 68 67 69 71 71 67 65 63
99 98 96 97 95 96 97 97 97 97 98 99 95 99 98 99 99 100 98 98 99 98 97 96 97 96 95 87 78 76 80 77 82 88 80 74 70 67 60 59 58 57 61 60
98 98 96 96 97 98 97 97 98 98 99 100 99 99 100 99 98 98 98 97 97 97 97 97 96 97 93 85 79 77 79 79 81 78 83 77 66 65 65 58 55 54 53 54
98 94 96 88 95 95 96 96 97 98 98 100 100 99 98 97 98 96 96 96 96 97 97 96 94 92 82 73 70 69 69 73 77 77 74 72 68 66 64 56 54 52 50 51
96 97 96 96 97 96 95 96 95 96 99 97 97 94 96 93 93 95 97 97 96 95 95 86 79 80 77 73 73 73 72 73 74 76 72 70 67 59 58 70 60 49 46 44

GFSNW_925_rhum_192.txt.gz
RH
78 77 80 74 80 92 99 89 91 84 85 81 92 90 72 54 48 40 42 47 50 51 48 50 46 46 36 38 49 54 53 69 91 74 53 61 74 80 84 96 83 98 94 85
90 87 84 75 84 91 95 96 82 89 86 84 95 81 72 59 55 51 49 52 54 48 50 53 48 43 36 42 48 49 49 66 85 52 53 59 70 70 73 80 83 88 94 76
84 82 87 85 73 88 100 91 89 94 95 94 87 88 81 72 52 57 50 52 49 48 54 54 55 45 38 41 44 48 46 62 60 58 42 45 52 54 64 76 92 74 78 75
90 88 90 85 80 72 92 94 90 74 95 96 92 84 80 78 68 57 49 51 52 51 55 50 55 48 42 41 49 53 54 72 72 66 59 57 60 61 59 74 68 82 63 79
80 86 76 80 93 72 83 98 90 86 90 66 93 92 88 83 72 66 69 59 54 50 62 50 52 49 48 47 52 54 62 68 66 71 54 53 58 57 58 58 58 75 70 75
83 82 74 78 88 85 86 87 88 97 86 87 75 75 82 69 66 63 58 57 64 59 54 50 51 51 50 46 49 58 58 73 72 78 62 65 47 34 33 37 43 53 64 54
80 82 77 80 79 91 79 87 88 95 86 84 81 73 70 71 67 74 60 59 56 42 40 46 48 56 58 58 60 52 61 65 72 84 70 49 30 27 29 41 42 40 37 46
86 77 81 79 81 85 90 92 86 89 95 80 86 74 81 79 80 79 72 62 50 43 44 57 61 51 50 51 58 64 57 63 71 84 83 52 34 30 33 35 34 28 41 45
83 87 87 86 88 90 94 87 92 89 97 78 63 64 64 75 80 74 69 58 50 48 59 62 71 64 39 43 60 63 63 61 68 81 77 53 29 29 27 30 46 31 42 49
91 84 84 83 78 80 87 87 80 90 98 72 68 78 74 71 77 82 78 77 61 52 73 75 75 77 44 51 63 81 79 79 82 84 87 62 41 30 31 40 35 34 44 48
90 86 88 88 90 91 92 85 80 83 91 76 68 66 75 66 61 80 83 85 74 80 82 80 74 81 55 46 48 73 76 86 92 82 83 68 32 36 38 34 38 34 42 46
87 88 87 86 86 84 85 87 72 82 96 78 69 73 70 66 57 87 79 70 90 81 79 82 81 73 69 54 48 54 53 51 66 58 54 38 34 33 34 41 39 37 40 43
80 80 79 78 77 77 79 78 78 88 92 85 85 80 73 71 69 65 76 67 70 86 64 76 79 75 67 61 57 43 39 44 46 40 35 39 37 36 36 36 38 37 38 44
76 76 77 78 78 79 79 80 78 86 86 97 73 55 68 64 71 68 67 62 55 69 76 94 98 77 60 64 54 50 42 41 42 46 38 38 38 40 39 39 38 39 39 44
76 77 78 76 74 80 81 82 84 83 92 84 86 66 68 66 74 75 72 72 70 70 79 90 98 84 71 69 71 62 48 42 47 44 38 37 39 46 45 48 46 44 43 43
75 75 75 77 79 81 85 78 73 66 83 88 92 68 72 67 74 75 72 68 74 82 80 87 81 69 68 77 78 48 43 45 43 41 46 49 48 52 50 53 53 51 47 44
74 74 74 76 78 86 90 76 64 75 92 99 98 96 92 65 67 75 80 71 72 74 79 82 73 76 80 79 87 54 48 53 56 55 55 54 56 56 56 56 56 54 51 53
74 73 76 81 84 89 89 88 86 64 78 98 98 94 96 81 97 98 77 80 81 88 90 72 82 94 89 97 73 57 53 63 63 62 58 57 59 60 59 58 61 60 60 61
74 78 82 85 90 92 78 90 83 85 94 99 98 82 84 96 99 92 96 81 99 93 91 77 70 77 94 72 71 65 69 65 61 68 63 64 64 68 63 62 62 64 64 66
78 80 97 97 100 92 98 99 99 100 100 100 99 91 98 97 99 99 99 99 98 98 95 93 98 77 54 64 72 67 69 72 74 82 78 76 76 76 69 64 68 66 66 68
68 100 98 74 61 85 100 100 99 100 99 99 98 97 98 98 97 98 98 99 99 98 88 96 95 95 65 78 77 76 77 76 74 72 73 73 73 80 80 76 73 69 68 71
75 82 83 94 99 99 99 93 95 99 95 99 98 97 92 99 95 99 99 99 99 96 97 97 98 56 87 78 80 82 80 82 82 76 77 77 80 78 83 85 86 76 70 67
93 99 98 98 97 97 98 95 96 98 99 100 99 99 98 99 99 100 99 98 96 99 98 97 97 92 94 89 85 86 82 80 81 76 72 71 76 77 78 84 76 70 68 65
99 98 96 97 96 96 96 97 97 94 99 98 99 98 99 100 99 99 98 96 99 99 99 95 97 96 92 80 83 85 91 83 80 84 82 78 73 71 67 64 63 64 68 66
99 98 96 96 95 97 97 96 98 98 99 98 99 100 99 99 99 98 97 97 96 96 96 97 97 98 97 95 92 93 95 94 85 77 81 81 70 69 69 61 58 58 59 59
98 97 96 87 96 94 96 95 96 98 98 99 100 99 98 98 98 97 96 96 95 96 97 97 96 96 96 96 96 95 89 79 74 75 76 73 69 69 69 59 56 55 55 57
96 97 97 96 97 95 95 95 96 97 97 97 98 97 96 96 96 95 96 96 96 96 96 96 96 96 96 94 87 73 69 70 71 75 78 78 66 58 60 68 59 50 50 51